Location: Hilton Head Island
(32.2163°N, 80.7526°W)
Time: 16:33:18
(UTC-05:00)

Explorer 11/Cluster Stage 4 - Pass Details

Date: 20 February 2026
Orbit: 463 x 1176 km, 28.8° (Epoch: 6 March)

Event Time Altitude Azimuth Distance (km) Brightness Sun altitude
Rises 15:52:44 0° 268° (W) 2,602 10.1 26.5°
Reaches altitude 10° 15:55:11 10° 258° (WSW) 1,657 9.6 26.1°
Maximum altitude 15:58:30 31° 194° (SSW) 834 7.8 25.5°
Drops below altitude 10° 16:01:42 10° 131° (SE) 1,597 8.1 24.9°
Sets 16:04:01 0° 120° (ESE) 2,490 8.9 24.5°
